Brookhaven, MS

1:11 PM CST on December 15, 2017 (GMT -0600)
Brookhaven

Weather History for K1R7 - December, 2012

Change the Weather History Date:

Thursday, December 6, 2012

  Actual Average (KMCB) Record (KMCB)
Temperature  
Mean Temperature 64 °F -  
Max Temperature 69 °F 63 °F 82 °F (1951)
Min Temperature 59 °F 39 °F 26 °F (1950)
Degree Days  
Heating Degree Days 1    
Growing Degree Days 14 (Base 50)    
Moisture  
Dew Point 61 °F    
Average Humidity 94    
Maximum Humidity 100    
Minimum Humidity 73    
Precipitation  
Precipitation 0.00 in - - ()
Sea Level Pressure  
Sea Level Pressure 30.01 in    
Wind  
Wind Speed 1 mph (ESE)    
Max Wind Speed 8 mph    
Max Gust Speed -    
Visibility 6 miles    
Events Fog    
Averages and records for this station are not official NWS values.
T = Trace of Precipitation, MM = Missing Value Source: NWS Daily Summary

Daily Weather History Graph

Daily Weather History Graph

Search for Another Location

Airport or City:

Trip Planner

Search our weather history database for the weather conditions in past years. The results will help you decide how hot, cold, wet, or windy it might be!

Date:

Astronomy

Dec. 06, 2012 Rise Set
Actual Time 6:47 AM CST 4:58 PM CST
Civil Twilight 6:21 AM CST 5:24 PM CST
Nautical Twilight 5:50 AM CST 5:54 PM CST
Astronomical Twilight 5:21 AM CST 6:24 PM CST
Moon No Moon Rise 12:01 PM CST (12/6)
Length of Visible Light 11h 03m
Length of Day
10h 10m
Waning Gibbous, 49% of the Moon is Illuminated
Dec 6
Waning Gibbous
Dec 13
New
Dec 19
First Quarter
Dec 28
Full
Jan 4
Last Quarter

Hourly Weather History & Observations

Time (CST) Temp. Dew Point Humidity Pressure Visibility Wind Dir Wind Speed Gust Speed Precip Events Conditions
12:15 AM 60.8 °F 60.8 °F 100% 30.07 in 0.5 mi Calm Calm - N/A Fog Fog
12:35 AM 59.0 °F 59.0 °F 100% 30.06 in 3.0 mi Calm Calm - N/A   Overcast
12:55 AM 60.8 °F 60.8 °F 100% 30.06 in 4.0 mi Calm Calm - N/A   Overcast
1:15 AM 60.8 °F 60.8 °F 100% 30.06 in 1.2 mi ENE 4.6 mph - N/A   Overcast
1:35 AM 60.8 °F 60.8 °F 100% 30.05 in 1.2 mi Calm Calm - N/A   Overcast
1:55 AM 60.8 °F 60.8 °F 100% 30.05 in 1.8 mi Calm Calm - N/A   Overcast
2:15 AM 60.8 °F 60.8 °F 100% 30.04 in 2.0 mi East 3.5 mph - N/A   Overcast
2:35 AM 60.8 °F 60.8 °F 100% 30.04 in 2.5 mi East 3.5 mph - N/A   Overcast
2:55 AM 60.8 °F 60.8 °F 100% 30.04 in 3.0 mi Calm Calm - N/A   Overcast
3:15 AM 60.8 °F 60.8 °F 100% 30.04 in 3.0 mi Calm Calm - N/A   Overcast
3:35 AM 60.8 °F 60.8 °F 100% 30.04 in 4.0 mi Calm Calm - N/A   Overcast
3:55 AM 60.8 °F 60.8 °F 100% 30.04 in 4.0 mi Calm Calm - N/A   Overcast
4:15 AM 60.8 °F 60.8 °F 100% 30.03 in 4.0 mi Calm Calm - N/A   Overcast
7:35 AM 60.8 °F 60.8 °F 100% 30.05 in 0.2 mi Calm Calm - N/A Fog Fog
7:55 AM 60.8 °F 60.8 °F 100% 30.05 in 0.5 mi Calm Calm - N/A Fog Fog
8:15 AM 60.8 °F 60.8 °F 100% 30.06 in 1.8 mi East 3.5 mph - N/A   Overcast
8:35 AM 60.8 °F 60.8 °F 100% 30.06 in 1.2 mi Calm Calm - N/A   Overcast
8:55 AM 62.6 °F 60.8 °F 94% 30.06 in 2.5 mi ESE 3.5 mph - N/A   Overcast
9:15 AM 62.6 °F 60.8 °F 94% 30.06 in 2.0 mi East 4.6 mph - N/A   Overcast
9:35 AM 62.6 °F 60.8 °F 94% 30.06 in 2.5 mi ESE 4.6 mph - N/A   Overcast
9:55 AM 62.6 °F 62.6 °F 100% 30.06 in 3.0 mi ESE 3.5 mph - N/A   Overcast
10:15 AM 64.4 °F 60.8 °F 88% 30.06 in 5.0 mi Calm Calm - N/A   Overcast
10:35 AM 64.4 °F 62.6 °F 94% 30.05 in 5.0 mi East 3.5 mph - N/A   Overcast
10:55 AM 64.4 °F 62.6 °F 94% 30.05 in 6.0 mi ESE 3.5 mph - N/A   Overcast
11:15 AM 64.4 °F 62.6 °F 94% 30.04 in 6.0 mi ESE 3.5 mph - N/A   Overcast
11:35 AM 66.2 °F 62.6 °F 88% 30.03 in 7.0 mi ESE 5.8 mph - N/A   Overcast
11:55 AM 66.2 °F 62.6 °F 88% 30.02 in 6.0 mi ESE 5.8 mph - N/A   Mostly Cloudy
12:15 PM 69.8 °F 60.8 °F 73% 30.01 in 9.0 mi SE 8.1 mph - N/A   Scattered Clouds
12:35 PM 69.8 °F 62.6 °F 78% 30.00 in 8.0 mi ESE 5.8 mph - N/A   Mostly Cloudy
12:55 PM 69.8 °F 60.8 °F 73% 29.99 in 9.0 mi ESE 5.8 mph - N/A   Mostly Cloudy
1:15 PM 69.8 °F 60.8 °F 73% 29.99 in 10.0 mi ESE 3.5 mph - N/A   Mostly Cloudy
1:35 PM 69.8 °F 60.8 °F 73% 29.98 in 10.0 mi ESE 4.6 mph - N/A   Overcast
1:55 PM 69.8 °F 60.8 °F 73% 29.98 in 10.0 mi SE 3.5 mph - N/A   Mostly Cloudy
2:15 PM 69.8 °F 60.8 °F 73% 29.98 in 10.0 mi Calm Calm - N/A   Mostly Cloudy
2:35 PM 68.0 °F 60.8 °F 78% 29.98 in 9.0 mi Calm Calm - N/A   Overcast
2:55 PM 69.8 °F 60.8 °F 73% 29.97 in 10.0 mi SSE 5.8 mph - N/A   Mostly Cloudy
3:15 PM 69.8 °F 60.8 °F 73% 29.96 in 10.0 mi ESE 4.6 mph - N/A   Mostly Cloudy
3:35 PM 66.2 °F 62.6 °F 88% 29.96 in 10.0 mi Calm Calm - N/A   Mostly Cloudy
3:55 PM 66.2 °F 62.6 °F 88% 29.96 in 10.0 mi Calm Calm - N/A   Partly Cloudy
4:15 PM 66.2 °F 62.6 °F 88% 29.97 in 10.0 mi Calm Calm - N/A   Clear
4:35 PM 64.4 °F 62.6 °F 94% 29.96 in 9.0 mi Calm Calm - N/A   Scattered Clouds
4:55 PM 64.4 °F 62.6 °F 94% 29.97 in 8.0 mi Calm Calm - N/A   Mostly Cloudy
5:15 PM 62.6 °F 62.6 °F 100% 29.97 in 8.0 mi Calm Calm - N/A   Overcast
5:35 PM 62.6 °F 62.6 °F 100% 29.97 in 7.0 mi Calm Calm - N/A   Mostly Cloudy
5:55 PM 64.4 °F 62.6 °F 94% 29.97 in 10.0 mi Calm Calm - N/A   Overcast
6:15 PM 62.6 °F 62.6 °F 100% 29.97 in 8.0 mi Calm Calm - N/A   Overcast
6:35 PM 62.6 °F 62.6 °F 100% 29.97 in 5.0 mi Calm Calm - N/A   Mostly Cloudy
6:55 PM 62.6 °F 62.6 °F 100% 29.97 in 6.0 mi Calm Calm - N/A   Mostly Cloudy
7:15 PM 60.8 °F 60.8 °F 100% 29.98 in 4.0 mi Calm Calm - N/A   Mostly Cloudy
7:35 PM 60.8 °F 60.8 °F 100% 29.98 in 5.0 mi Calm Calm - N/A   Mostly Cloudy
7:55 PM 60.8 °F 60.8 °F 100% 29.98 in 3.0 mi Calm Calm - N/A   Overcast
8:35 PM 60.8 °F 60.8 °F 100% 29.98 in 8.0 mi Calm Calm - N/A   Mostly Cloudy
8:55 PM 62.6 °F 60.8 °F 94% 29.98 in 9.0 mi Calm Calm - N/A   Mostly Cloudy
9:15 PM 60.8 °F 60.8 °F 100% 29.98 in 9.0 mi Calm Calm - N/A   Mostly Cloudy
9:35 PM 60.8 °F 60.8 °F 100% 29.98 in 5.0 mi Calm Calm - N/A   Mostly Cloudy
9:55 PM 59.0 °F 59.0 °F 100% 29.99 in 0.8 mi Calm Calm - N/A   Mostly Cloudy
10:15 PM 59.0 °F 59.0 °F 100% 29.99 in 3.0 mi Calm Calm - N/A   Mostly Cloudy
10:35 PM 59.0 °F 59.0 °F 100% 29.99 in 2.5 mi Calm Calm - N/A   Overcast
10:55 PM 59.0 °F 59.0 °F 100% 29.99 in 5.0 mi Calm Calm - N/A   Mostly Cloudy
11:15 PM 59.0 °F 59.0 °F 100% 29.98 in 4.0 mi Calm Calm - N/A   Scattered Clouds
11:35 PM 59.0 °F 59.0 °F 100% 29.97 in 9.0 mi Calm Calm - N/A   Scattered Clouds
11:55 PM 59.0 °F 57.2 °F 94% 29.97 in 7.0 mi Calm Calm - N/A   Scattered Clouds